Time,TemperatureF,DewpointF,PressureIn,WindDirection,WindDirectionDegrees,WindSpeedMPH,WindSpeedGustMPH,Humidity,HourlyPrecipIn,Conditions,Clouds,dailyrainin,SoftwareType,DateUTC
2013-05-19 00:01:00,56.9,54.9,30.30,SSW,196,0.0,0.0,93,0.00,,---,0.00,VWS V14.00,2013-05-19 04:01:00,
2013-05-19 00:02:00,56.9,54.9,30.30,SSW,196,0.0,0.0,93,0.00,,---,0.00,VWS V14.00,2013-05-19 04:02:00,
2013-05-19 00:03:00,56.9,54.9,30.30,SSW,196,0.0,0.0,93,0.00,,---,0.00,VWS V14.00,2013-05-19 04:03:00,
2013-05-19 00:08:00,56.8,55.1,30.30,SE,144,0.0,0.0,94,0.00,,---,0.00,VWS V14.00,2013-05-19 04:08:00,
2013-05-19 00:13:00,56.8,55.1,30.30,South,175,7.0,7.0,94,0.00,,---,0.00,VWS V14.00,2013-05-19 04:13:00,
2013-05-19 00:18:00,56.8,55.1,30.30,South,181,0.0,0.0,94,0.00,,---,0.00,VWS V14.00,2013-05-19 04:18:00,
2013-05-19 00:23:00,56.8,55.1,30.30,SSE,153,0.0,0.0,94,0.00,,---,0.00,VWS V14.00,2013-05-19 04:23:00,
2013-05-19 00:28:00,56.8,55.1,30.30,SSE,157,0.0,0.0,94,0.00,,---,0.00,VWS V14.00,2013-05-19 04:28:00,
2013-05-19 00:33:00,56.8,55.1,30.31,SSE,161,0.0,0.0,94,0.00,,---,0.00,VWS V14.00,2013-05-19 04:33:00,
2013-05-19 00:38:00,56.8,55.1,30.31,SE,142,0.0,0.0,94,0.00,,---,0.00,VWS V14.00,2013-05-19 04:38:00,
2013-05-19 00:43:00,56.8,55.1,30.31,SE,142,0.0,0.0,94,0.00,,---,0.00,VWS V14.00,2013-05-19 04:43:00,
2013-05-19 00:48:00,56.8,55.1,30.31,SSW,196,0.0,0.0,94,0.00,,---,0.00,VWS V14.00,2013-05-19 04:48:00,
2013-05-19 00:54:00,56.8,55.1,30.30,WSW,256,0.0,2.0,94,0.00,,---,0.00,VWS V14.00,2013-05-19 04:54:00,
2013-05-19 00:59:00,56.8,55.1,30.30,SSW,211,0.0,0.0,94,0.00,,---,0.00,VWS V14.00,2013-05-19 04:59:00,
2013-05-19 01:04:00,56.7,55.0,30.30,SSW,211,0.0,0.0,94,0.00,,---,0.00,VWS V14.00,2013-05-19 05:04:00,
2013-05-19 01:09:00,56.6,54.9,30.30,East,94,1.0,2.0,94,0.00,,---,0.00,VWS V14.00,2013-05-19 05:09:00,
2013-05-19 01:14:00,56.5,54.8,30.30,East,88,1.0,1.0,94,0.00,,---,0.00,VWS V14.00,2013-05-19 05:14:00,
2013-05-19 01:19:00,56.4,54.7,30.30,East,94,0.0,1.0,94,0.00,,---,0.00,VWS V14.00,2013-05-19 05:19:00,
2013-05-19 01:24:00,56.3,54.6,30.30,SSE,150,0.0,0.0,94,0.00,,---,0.00,VWS V14.00,2013-05-19 05:24:00,
2013-05-19 01:29:00,56.3,54.6,30.30,East,89,0.0,0.0,94,0.00,,---,0.00,VWS V14.00,2013-05-19 05:29:00,
2013-05-19 01:34:00,56.3,54.6,30.29,NE,56,0.0,0.0,94,0.00,,---,0.00,VWS V14.00,2013-05-19 05:34:00,
2013-05-19 01:39:00,56.2,54.5,30.29,East,94,0.0,0.0,94,0.00,,---,0.00,VWS V14.00,2013-05-19 05:39:00,
2013-05-19 01:44:00,56.2,54.8,30.29,ENE,75,0.0,0.0,95,0.00,,---,0.00,VWS V14.00,2013-05-19 05:44:00,
2013-05-19 01:49:00,56.1,54.4,30.29,East,83,1.0,1.0,94,0.00,,---,0.00,VWS V14.00,2013-05-19 05:49:00,
2013-05-19 01:54:00,56.0,54.3,30.29,ENE,75,0.0,0.0,94,0.00,,---,0.00,VWS V14.00,2013-05-19 05:54:00,
2013-05-19 01:59:00,55.9,54.2,30.29,NE,51,0.0,0.0,94,0.00,,---,0.00,VWS V14.00,2013-05-19 05:59:00,
2013-05-19 02:04:00,55.9,54.5,30.29,ENE,76,1.0,1.0,95,0.00,,---,0.00,VWS V14.00,2013-05-19 06:04:00,
2013-05-19 02:09:00,55.8,54.4,30.28,ESE,114,0.0,0.0,95,0.00,,---,0.00,VWS V14.00,2013-05-19 06:09:00,
2013-05-19 02:14:00,55.8,54.4,30.28,ESE,105,1.0,1.0,95,0.00,,---,0.00,VWS V14.00,2013-05-19 06:14:00,
2013-05-19 02:19:00,55.7,54.3,30.28,SSW,196,0.0,1.0,95,0.00,,---,0.00,VWS V14.00,2013-05-19 06:19:00,
2013-05-19 02:25:00,55.7,54.3,30.28,East,93,0.0,1.0,95,0.00,,---,0.00,VWS V14.00,2013-05-19 06:25:00,
2013-05-19 02:30:00,55.5,54.1,30.28,SSE,167,0.0,0.0,95,0.00,,---,0.00,VWS V14.00,2013-05-19 06:30:00,
2013-05-19 02:35:00,55.5,54.1,30.28,East,93,0.0,2.0,95,0.00,,---,0.00,VWS V14.00,2013-05-19 06:35:00,
2013-05-19 02:40:00,55.4,54.0,30.28,East,100,1.0,2.0,95,0.00,,---,0.00,VWS V14.00,2013-05-19 06:40:00,
2013-05-19 02:45:00,55.3,53.9,30.28,ENE,59,0.0,1.0,95,0.00,,---,0.00,VWS V14.00,2013-05-19 06:45:00,
2013-05-19 02:50:00,55.3,53.9,30.28,ENE,75,0.0,0.0,95,0.00,,---,0.00,VWS V14.00,2013-05-19 06:50:00,
2013-05-19 02:55:00,55.2,53.8,30.28,ENE,70,0.0,0.0,95,0.00,,---,0.00,VWS V14.00,2013-05-19 06:55:00,
2013-05-19 03:00:00,55.1,53.7,30.28,ENE,70,0.0,0.0,95,0.00,,---,0.00,VWS V14.00,2013-05-19 07:00:00,
2013-05-19 03:05:00,55.0,53.6,30.28,East,80,0.0,3.0,95,0.00,,---,0.00,VWS V14.00,2013-05-19 07:05:00,
2013-05-19 03:10:00,55.0,53.6,30.28,East,80,0.0,0.0,95,0.00,,---,0.00,VWS V14.00,2013-05-19 07:10:00,
2013-05-19 03:15:00,54.9,53.5,30.28,East,81,0.0,0.0,95,0.00,,---,0.00,VWS V14.00,2013-05-19 07:15:00,
2013-05-19 03:20:00,55.0,53.6,30.28,East,81,0.0,0.0,95,0.00,,---,0.00,VWS V14.00,2013-05-19 07:20:00,
2013-05-19 03:25:00,54.9,53.5,30.28,East,94,1.0,1.0,95,0.00,,---,0.00,VWS V14.00,2013-05-19 07:25:00,
2013-05-19 03:30:00,54.9,53.5,30.27,East,94,0.0,0.0,95,0.00,,---,0.00,VWS V14.00,2013-05-19 07:30:00,
2013-05-19 03:35:00,54.9,53.5,30.27,East,92,0.0,0.0,95,0.00,,---,0.00,VWS V14.00,2013-05-19 07:35:00,
2013-05-19 03:40:00,54.9,53.5,30.27,East,92,0.0,0.0,95,0.00,,---,0.00,VWS V14.00,2013-05-19 07:40:00,
2013-05-19 03:45:00,54.9,53.5,30.28,East,92,0.0,0.0,95,0.00,,---,0.00,VWS V14.00,2013-05-19 07:45:00,
2013-05-19 03:51:00,54.9,53.5,30.27,East,92,0.0,0.0,95,0.00,,---,0.00,VWS V14.00,2013-05-19 07:51:00,
2013-05-19 03:56:00,54.9,53.5,30.27,East,92,0.0,0.0,95,0.00,,---,0.00,VWS V14.00,2013-05-19 07:56:00,
2013-05-19 04:01:00,54.9,53.5,30.27,East,92,0.0,0.0,95,0.00,,---,0.00,VWS V14.00,2013-05-19 08:01:00,
2013-05-19 04:06:00,54.9,53.5,30.27,East,92,0.0,1.0,95,0.00,,---,0.00,VWS V14.00,2013-05-19 08:06:00,
2013-05-19 04:11:00,54.9,53.5,30.27,East,92,0.0,0.0,95,0.00,,---,0.00,VWS V14.00,2013-05-19 08:11:00,
2013-05-19 04:16:00,54.9,53.5,30.27,East,92,1.0,2.0,95,0.00,,---,0.00,VWS V14.00,2013-05-19 08:16:00,
2013-05-19 04:21:00,54.9,53.5,30.27,East,92,0.0,0.0,95,0.00,,---,0.00,VWS V14.00,2013-05-19 08:21:00,
2013-05-19 04:26:00,55.0,53.6,30.28,East,92,0.0,0.0,95,0.00,,---,0.00,VWS V14.00,2013-05-19 08:26:00,
2013-05-19 04:31:00,55.0,53.6,30.28,East,92,0.0,0.0,95,0.00,,---,0.00,VWS V14.00,2013-05-19 08:31:00,
2013-05-19 04:36:00,55.0,53.6,30.27,East,84,0.0,0.0,95,0.00,,---,0.00,VWS V14.00,2013-05-19 08:36:00,
2013-05-19 04:41:00,55.0,53.6,30.27,East,84,0.0,0.0,95,0.00,,---,0.00,VWS V14.00,2013-05-19 08:41:00,
2013-05-19 04:46:00,55.0,53.6,30.27,East,84,0.0,0.0,95,0.00,,---,0.00,VWS V14.00,2013-05-19 08:46:00,
2013-05-19 04:51:00,55.0,53.6,30.27,East,84,0.0,1.0,95,0.00,,---,0.00,VWS V14.00,2013-05-19 08:51:00,
2013-05-19 04:56:00,55.0,53.6,30.27,East,84,0.0,0.0,95,0.00,,---,0.00,VWS V14.00,2013-05-19 08:56:00,
2013-05-19 05:01:00,55.0,53.6,30.27,East,87,1.0,3.0,95,0.00,,---,0.00,VWS V14.00,2013-05-19 09:01:00,
2013-05-19 05:06:00,55.0,53.6,30.27,East,87,0.0,1.0,95,0.00,,---,0.00,VWS V14.00,2013-05-19 09:06:00,
2013-05-19 05:11:00,55.0,53.6,30.27,East,87,0.0,0.0,95,0.00,,---,0.00,VWS V14.00,2013-05-19 09:11:00,
2013-05-19 05:16:00,55.0,53.6,30.27,East,88,0.0,1.0,95,0.00,,---,0.00,VWS V14.00,2013-05-19 09:16:00,
2013-05-19 05:22:00,55.0,53.6,30.27,East,88,0.0,0.0,95,0.00,,---,0.00,VWS V14.00,2013-05-19 09:22:00,
2013-05-19 05:27:00,55.0,53.6,30.27,ENE,63,0.0,1.0,95,0.00,,---,0.00,VWS V14.00,2013-05-19 09:27:00,
2013-05-19 05:32:00,55.0,53.6,30.27,East,95,0.0,1.0,95,0.00,,---,0.00,VWS V14.00,2013-05-19 09:32:00,
2013-05-19 05:37:00,55.0,53.6,30.27,East,82,2.0,2.0,95,0.00,,---,0.00,VWS V14.00,2013-05-19 09:37:00,
2013-05-19 05:42:00,55.0,53.6,30.28,East,83,0.0,1.0,95,0.00,,---,0.00,VWS V14.00,2013-05-19 09:42:00,
2013-05-19 05:47:00,55.0,53.6,30.28,East,99,0.0,1.0,95,0.00,,---,0.00,VWS V14.00,2013-05-19 09:47:00,
2013-05-19 05:52:00,55.0,53.6,30.28,East,99,0.0,0.0,95,0.00,,---,0.00,VWS V14.00,2013-05-19 09:52:00,
2013-05-19 05:57:00,55.1,53.7,30.28,East,99,0.0,1.0,95,0.00,,---,0.00,VWS V14.00,2013-05-19 09:57:00,
2013-05-19 06:02:00,55.1,53.7,30.28,East,99,0.0,1.0,95,0.00,,---,0.00,VWS V14.00,2013-05-19 10:02:00,
2013-05-19 06:07:00,55.2,53.8,30.28,East,98,0.0,1.0,95,0.00,,---,0.00,VWS V14.00,2013-05-19 10:07:00,
2013-05-19 06:12:00,55.3,53.9,30.29,East,79,0.0,0.0,95,0.00,,---,0.00,VWS V14.00,2013-05-19 10:12:00,
2013-05-19 06:17:00,55.3,53.9,30.29,ESE,107,0.0,1.0,95,0.00,,---,0.00,VWS V14.00,2013-05-19 10:17:00,
2013-05-19 06:22:00,55.4,54.0,30.29,East,80,3.0,4.0,95,0.00,,---,0.00,VWS V14.00,2013-05-19 10:22:00,
2013-05-19 06:27:00,55.5,54.1,30.29,East,96,0.0,2.0,95,0.00,,---,0.00,VWS V14.00,2013-05-19 10:27:00,
2013-05-19 06:32:00,55.5,54.1,30.29,East,95,1.0,1.0,95,0.00,,---,0.00,VWS V14.00,2013-05-19 10:32:00,
2013-05-19 06:37:00,55.6,54.2,30.29,SE,128,0.0,1.0,95,0.00,,---,0.00,VWS V14.00,2013-05-19 10:37:00,
2013-05-19 06:42:00,55.6,54.2,30.29,East,87,3.0,3.0,95,0.00,,---,0.00,VWS V14.00,2013-05-19 10:42:00,
2013-05-19 06:47:00,55.7,54.3,30.29,East,97,0.0,1.0,95,0.00,,---,0.00,VWS V14.00,2013-05-19 10:47:00,
2013-05-19 06:53:00,55.7,54.3,30.29,East,97,1.0,2.0,95,0.00,,---,0.00,VWS V14.00,2013-05-19 10:53:00,
2013-05-19 06:58:00,55.8,54.4,30.29,East,86,3.0,3.0,95,0.00,,---,0.00,VWS V14.00,2013-05-19 10:58:00,
2013-05-19 07:03:00,55.9,54.5,30.28,ENE,78,0.0,0.0,95,0.00,,---,0.00,VWS V14.00,2013-05-19 11:03:00,
2013-05-19 07:08:00,55.9,54.5,30.29,East,101,1.0,2.0,95,0.00,,---,0.00,VWS V14.00,2013-05-19 11:08:00,
2013-05-19 07:13:00,56.0,54.6,30.29,East,93,2.0,2.0,95,0.00,,---,0.00,VWS V14.00,2013-05-19 11:13:00,
2013-05-19 07:18:00,56.1,54.7,30.29,East,94,0.0,0.0,95,0.00,,---,0.00,VWS V14.00,2013-05-19 11:18:00,
2013-05-19 07:23:00,56.2,54.8,30.29,East,94,0.0,0.0,95,0.00,,---,0.00,VWS V14.00,2013-05-19 11:23:00,
2013-05-19 07:28:00,56.3,54.9,30.29,ESE,103,0.0,2.0,95,0.00,,---,0.00,VWS V14.00,2013-05-19 11:28:00,
2013-05-19 07:33:00,56.3,54.9,30.29,ENE,74,0.0,0.0,95,0.00,,---,0.00,VWS V14.00,2013-05-19 11:33:00,
2013-05-19 07:38:00,56.4,55.0,30.29,East,90,0.0,0.0,95,0.00,,---,0.00,VWS V14.00,2013-05-19 11:38:00,
2013-05-19 07:43:00,56.5,55.1,30.29,ESE,103,0.0,0.0,95,0.00,,---,0.00,VWS V14.00,2013-05-19 11:43:00,
2013-05-19 07:48:00,56.6,55.2,30.29,ESE,103,0.0,0.0,95,0.00,,---,0.00,VWS V14.00,2013-05-19 11:48:00,
2013-05-19 07:53:00,56.7,55.3,30.29,ESE,103,0.0,1.0,95,0.00,,---,0.00,VWS V14.00,2013-05-19 11:53:00,
2013-05-19 07:58:00,56.8,55.4,30.29,North,355,0.0,1.0,95,0.00,,---,0.00,VWS V14.00,2013-05-19 11:58:00,
2013-05-19 08:03:00,56.9,55.5,30.29,ESE,117,0.0,0.0,95,0.00,,---,0.00,VWS V14.00,2013-05-19 12:03:00,
2013-05-19 08:08:00,57.0,55.6,30.29,ESE,117,1.0,1.0,95,0.00,,---,0.00,VWS V14.00,2013-05-19 12:08:00,
2013-05-19 08:13:00,57.1,55.7,30.29,East,83,3.0,5.0,95,0.00,,---,0.00,VWS V14.00,2013-05-19 12:13:00,
2013-05-19 08:18:00,57.1,55.7,30.29,ESE,116,1.0,1.0,95,0.00,,---,0.00,VWS V14.00,2013-05-19 12:18:00,
2013-05-19 08:24:00,57.1,55.7,30.29,ESE,105,1.0,1.0,95,0.00,,---,0.00,VWS V14.00,2013-05-19 12:24:00,
2013-05-19 08:29:00,57.1,55.7,30.29,East,97,0.0,0.0,95,0.00,,---,0.00,VWS V14.00,2013-05-19 12:29:00,
2013-05-19 08:34:00,57.2,55.8,30.29,East,97,0.0,2.0,95,0.00,,---,0.00,VWS V14.00,2013-05-19 12:34:00,
2013-05-19 08:39:00,57.2,55.8,30.30,East,98,0.0,0.0,95,0.00,,---,0.00,VWS V14.00,2013-05-19 12:39:00,
2013-05-19 08:44:00,57.2,55.8,30.30,East,101,0.0,1.0,95,0.00,,---,0.00,VWS V14.00,2013-05-19 12:44:00,
2013-05-19 08:49:00,57.1,55.7,30.30,East,96,0.0,4.0,95,0.00,,---,0.00,VWS V14.00,2013-05-19 12:49:00,
2013-05-19 08:54:00,57.2,55.8,30.30,East,79,1.0,2.0,95,0.00,,---,0.00,VWS V14.00,2013-05-19 12:54:00,
2013-05-19 08:59:00,57.2,55.8,30.30,ESE,103,1.0,4.0,95,0.00,,---,0.00,VWS V14.00,2013-05-19 12:59:00,
2013-05-19 09:04:00,57.2,55.8,30.30,East,82,0.0,1.0,95,0.00,,---,0.00,VWS V14.00,2013-05-19 13:04:00,
2013-05-19 09:09:00,57.2,55.8,30.30,East,96,4.0,4.0,95,0.00,,---,0.00,VWS V14.00,2013-05-19 13:09:00,
2013-05-19 09:14:00,57.3,55.9,30.30,East,88,2.0,2.0,95,0.00,,---,0.00,VWS V14.00,2013-05-19 13:14:00,
2013-05-19 09:19:00,57.3,55.9,30.30,ESE,111,0.0,2.0,95,0.00,,---,0.00,VWS V14.00,2013-05-19 13:19:00,
2013-05-19 09:24:00,57.4,56.0,30.30,East,99,0.0,0.0,95,0.00,,---,0.00,VWS V14.00,2013-05-19 13:24:00,
2013-05-19 09:29:00,57.5,56.1,30.30,East,99,0.0,0.0,95,0.00,,---,0.00,VWS V14.00,2013-05-19 13:29:00,
2013-05-19 09:34:00,57.4,56.0,30.30,ESE,105,0.0,1.0,95,0.00,,---,0.00,VWS V14.00,2013-05-19 13:34:00,
2013-05-19 09:39:00,57.4,56.0,30.30,East,86,0.0,1.0,95,0.00,,---,0.00,VWS V14.00,2013-05-19 13:39:00,
2013-05-19 09:44:00,57.3,56.2,30.30,ESE,103,0.0,2.0,96,0.00,,---,0.00,VWS V14.00,2013-05-19 13:44:00,
2013-05-19 09:49:00,57.2,56.1,30.31,East,88,0.0,0.0,96,0.00,,---,0.00,VWS V14.00,2013-05-19 13:49:00,
2013-05-19 09:55:00,57.1,56.0,30.30,East,96,0.0,4.0,96,0.00,,---,0.00,VWS V14.00,2013-05-19 13:55:00,
2013-05-19 10:00:00,57.1,55.7,30.30,ESE,105,0.0,2.0,95,0.00,,---,0.00,VWS V14.00,2013-05-19 14:00:00,
2013-05-19 10:05:00,57.1,55.7,30.30,ESE,103,1.0,1.0,95,0.00,,---,0.00,VWS V14.00,2013-05-19 14:05:00,
2013-05-19 10:10:00,57.1,55.7,30.30,SE,125,5.0,7.0,95,0.00,,---,0.00,VWS V14.00,2013-05-19 14:10:00,
2013-05-19 10:15:00,57.2,56.1,30.30,SE,125,0.0,0.0,96,0.00,,---,0.00,VWS V14.00,2013-05-19 14:15:00,
2013-05-19 10:20:00,57.2,56.1,30.30,South,180,2.0,2.0,96,0.00,,---,0.00,VWS V14.00,2013-05-19 14:20:00,
2013-05-19 10:25:00,57.2,56.1,30.30,East,87,0.0,2.0,96,0.00,,---,0.00,VWS V14.00,2013-05-19 14:25:00,
2013-05-19 10:30:00,57.3,56.2,30.30,East,101,0.0,4.0,96,0.00,,---,0.00,VWS V14.00,2013-05-19 14:30:00,
2013-05-19 10:35:00,57.3,56.2,30.30,ESE,103,2.0,4.0,96,0.00,,---,0.00,VWS V14.00,2013-05-19 14:35:00,
2013-05-19 10:40:00,57.4,56.3,30.30,East,96,0.0,4.0,96,0.00,,---,0.00,VWS V14.00,2013-05-19 14:40:00,
2013-05-19 10:45:00,57.3,56.2,30.30,East,97,0.0,4.0,96,0.00,,---,0.00,VWS V14.00,2013-05-19 14:45:00,
2013-05-19 10:50:00,57.3,56.2,30.30,ENE,60,1.0,2.0,96,0.00,,---,0.00,VWS V14.00,2013-05-19 14:50:00,
2013-05-19 10:55:00,57.2,56.1,30.30,East,99,0.0,1.0,96,0.00,,---,0.00,VWS V14.00,2013-05-19 14:55:00,
2013-05-19 11:00:00,57.3,56.2,30.30,ENE,78,1.0,1.0,96,0.00,,---,0.00,VWS V14.00,2013-05-19 15:00:00,
2013-05-19 11:05:00,57.3,56.2,30.30,East,95,0.0,0.0,96,0.00,,---,0.00,VWS V14.00,2013-05-19 15:05:00,
2013-05-19 11:10:00,57.3,56.2,30.30,ESE,108,5.0,6.0,96,0.00,,---,0.00,VWS V14.00,2013-05-19 15:10:00,
2013-05-19 11:15:00,57.2,56.1,30.30,ESE,119,1.0,1.0,96,0.00,,---,0.00,VWS V14.00,2013-05-19 15:15:00,
2013-05-19 11:21:00,57.3,56.2,30.30,East,101,6.0,6.0,96,0.00,,---,0.00,VWS V14.00,2013-05-19 15:21:00,
2013-05-19 11:26:00,57.2,56.1,30.30,East,98,0.0,2.0,96,0.00,,---,0.00,VWS V14.00,2013-05-19 15:26:00,
2013-05-19 11:31:00,57.2,56.1,30.30,East,99,2.0,5.0,96,0.00,,---,0.00,VWS V14.00,2013-05-19 15:31:00,
2013-05-19 11:36:00,57.1,56.0,30.30,ESE,105,6.0,6.0,96,0.00,,---,0.00,VWS V14.00,2013-05-19 15:36:00,
2013-05-19 11:41:00,57.0,55.6,30.29,East,98,2.0,2.0,95,0.00,,---,0.00,VWS V14.00,2013-05-19 15:41:00,
2013-05-19 11:46:00,56.9,55.5,30.30,East,89,4.0,6.0,95,0.00,,---,0.00,VWS V14.00,2013-05-19 15:46:00,
2013-05-19 11:51:00,56.8,55.4,30.30,ESE,107,2.0,5.0,95,0.00,,---,0.00,VWS V14.00,2013-05-19 15:51:00,
2013-05-19 11:56:00,56.8,55.7,30.29,East,97,2.0,2.0,96,0.00,,---,0.00,VWS V14.00,2013-05-19 15:56:00,
2013-05-19 12:01:00,56.9,55.8,30.30,ESE,111,0.0,2.0,96,0.00,,---,0.00,VWS V14.00,2013-05-19 16:01:00,
2013-05-19 12:06:00,56.9,55.8,30.30,ESE,105,1.0,5.0,96,0.00,,---,0.00,VWS V14.00,2013-05-19 16:06:00,
2013-05-19 12:11:00,57.0,55.6,30.30,East,101,5.0,5.0,95,0.00,,---,0.00,VWS V14.00,2013-05-19 16:11:00,
2013-05-19 12:16:00,57.1,55.7,30.29,East,96,1.0,2.0,95,0.00,,---,0.00,VWS V14.00,2013-05-19 16:16:00,
2013-05-19 12:21:00,57.1,56.0,30.29,East,98,1.0,2.0,96,0.00,,---,0.00,VWS V14.00,2013-05-19 16:21:00,
2013-05-19 12:26:00,57.2,56.1,30.29,East,99,4.0,4.0,96,0.00,,---,0.00,VWS V14.00,2013-05-19 16:26:00,
2013-05-19 12:31:00,57.1,56.0,30.28,East,97,0.0,2.0,96,0.00,,---,0.00,VWS V14.00,2013-05-19 16:31:00,
2013-05-19 12:36:00,57.2,56.1,30.28,East,95,4.0,4.0,96,0.00,,---,0.00,VWS V14.00,2013-05-19 16:36:00,
2013-05-19 12:41:00,57.3,56.2,30.28,East,97,0.0,2.0,96,0.00,,---,0.00,VWS V14.00,2013-05-19 16:41:00,
2013-05-19 12:46:00,57.3,56.2,30.28,ENE,77,3.0,5.0,96,0.00,,---,0.00,VWS V14.00,2013-05-19 16:46:00,
2013-05-19 12:51:00,57.3,56.2,30.27,East,82,3.0,5.0,96,0.00,,---,0.00,VWS V14.00,2013-05-19 16:51:00,
2013-05-19 12:57:00,57.4,56.3,30.27,ESE,105,2.0,3.0,96,0.00,,---,0.00,VWS V14.00,2013-05-19 16:57:00,
2013-05-19 13:02:00,57.3,56.2,30.27,East,101,4.0,4.0,96,0.00,,---,0.00,VWS V14.00,2013-05-19 17:02:00,
2013-05-19 13:07:00,57.3,56.2,30.27,East,95,0.0,2.0,96,0.00,,---,0.00,VWS V14.00,2013-05-19 17:07:00,
2013-05-19 13:12:00,57.4,56.3,30.26,ESE,105,0.0,1.0,96,0.00,,---,0.00,VWS V14.00,2013-05-19 17:12:00,
2013-05-19 13:17:00,57.5,56.4,30.26,East,100,1.0,1.0,96,0.00,,---,0.00,VWS V14.00,2013-05-19 17:17:00,
2013-05-19 13:22:00,57.6,56.5,30.26,East,101,0.0,0.0,96,0.00,,---,0.00,VWS V14.00,2013-05-19 17:22:00,
2013-05-19 13:27:00,57.5,56.4,30.26,East,94,0.0,1.0,96,0.00,,---,0.00,VWS V14.00,2013-05-19 17:27:00,
2013-05-19 13:32:00,57.6,56.5,30.26,East,82,3.0,3.0,96,0.00,,---,0.00,VWS V14.00,2013-05-19 17:32:00,
2013-05-19 13:37:00,57.5,56.4,30.26,ENE,71,2.0,5.0,96,0.00,,---,0.00,VWS V14.00,2013-05-19 17:37:00,
2013-05-19 13:42:00,57.5,56.4,30.25,East,87,0.0,1.0,96,0.00,,---,0.00,VWS V14.00,2013-05-19 17:42:00,
2013-05-19 13:47:00,57.5,56.4,30.25,ESE,105,2.0,5.0,96,0.00,,---,0.00,VWS V14.00,2013-05-19 17:47:00,
2013-05-19 13:52:00,57.5,56.4,30.25,East,96,2.0,5.0,96,0.00,,---,0.00,VWS V14.00,2013-05-19 17:52:00,
2013-05-19 13:57:00,57.4,56.3,30.26,East,88,1.0,3.0,96,0.00,,---,0.00,VWS V14.00,2013-05-19 17:57:00,
2013-05-19 14:03:00,57.4,56.3,30.26,ESE,107,1.0,1.0,96,0.00,,---,0.00,VWS V14.00,2013-05-19 18:03:00,
2013-05-19 14:08:00,57.4,56.3,30.26,ESE,105,1.0,2.0,96,0.00,,---,0.00,VWS V14.00,2013-05-19 18:08:00,
2013-05-19 14:13:00,57.5,56.4,30.26,ENE,67,2.0,4.0,96,0.00,,---,0.00,VWS V14.00,2013-05-19 18:13:00,
2013-05-19 14:18:00,57.4,56.3,30.25,East,101,0.0,1.0,96,0.00,,---,0.00,VWS V14.00,2013-05-19 18:18:00,
2013-05-19 14:23:00,57.4,56.3,30.25,East,99,1.0,5.0,96,0.00,,---,0.00,VWS V14.00,2013-05-19 18:23:00,
2013-05-19 14:28:00,57.4,56.3,30.25,East,100,0.0,0.0,96,0.00,,---,0.00,VWS V14.00,2013-05-19 18:28:00,
2013-05-19 14:33:00,57.4,56.3,30.25,ESE,115,1.0,1.0,96,0.00,,---,0.00,VWS V14.00,2013-05-19 18:33:00,
2013-05-19 14:38:00,57.5,56.4,30.25,ESE,102,0.0,0.0,96,0.00,,---,0.00,VWS V14.00,2013-05-19 18:38:00,
2013-05-19 14:43:00,57.5,56.4,30.25,ESE,103,0.0,0.0,96,0.00,,---,0.00,VWS V14.00,2013-05-19 18:43:00,
2013-05-19 14:48:00,57.5,56.4,30.25,East,90,0.0,0.0,96,0.00,,---,0.00,VWS V14.00,2013-05-19 18:48:00,
2013-05-19 14:53:00,57.6,56.5,30.25,East,90,0.0,1.0,96,0.00,,---,0.00,VWS V14.00,2013-05-19 18:53:00,
2013-05-19 14:58:00,57.5,56.4,30.25,East,90,0.0,0.0,96,0.00,,---,0.00,VWS V14.00,2013-05-19 18:58:00,
2013-05-19 15:04:00,57.5,56.4,30.25,East,90,0.0,1.0,96,0.00,,---,0.00,VWS V14.00,2013-05-19 19:04:00,
2013-05-19 15:09:00,57.6,56.5,30.24,East,90,0.0,2.0,96,0.00,,---,0.00,VWS V14.00,2013-05-19 19:09:00,
2013-05-19 15:14:00,57.6,56.5,30.24,East,94,2.0,2.0,96,0.00,,---,0.00,VWS V14.00,2013-05-19 19:14:00,
2013-05-19 15:19:00,57.6,56.5,30.24,East,94,0.0,1.0,96,0.00,,---,0.00,VWS V14.00,2013-05-19 19:19:00,
2013-05-19 15:24:00,57.6,56.5,30.23,East,94,2.0,4.0,96,0.00,,---,0.00,VWS V14.00,2013-05-19 19:24:00,
2013-05-19 15:29:00,57.6,56.5,30.23,East,100,2.0,2.0,96,0.00,,---,0.00,VWS V14.00,2013-05-19 19:29:00,
2013-05-19 15:34:00,57.7,56.6,30.22,East,84,5.0,5.0,96,0.00,,---,0.00,VWS V14.00,2013-05-19 19:34:00,
2013-05-19 15:39:00,57.7,56.6,30.22,East,88,1.0,2.0,96,0.00,,---,0.00,VWS V14.00,2013-05-19 19:39:00,
2013-05-19 15:44:00,57.7,56.6,30.22,ESE,105,4.0,4.0,96,0.00,,---,0.00,VWS V14.00,2013-05-19 19:44:00,
2013-05-19 15:49:00,57.7,56.6,30.22,East,94,1.0,1.0,96,0.00,,---,0.00,VWS V14.00,2013-05-19 19:49:00,
2013-05-19 15:54:00,57.8,56.7,30.22,East,94,1.0,1.0,96,0.00,,---,0.00,VWS V14.00,2013-05-19 19:54:00,
2013-05-19 15:59:00,57.8,56.7,30.22,East,84,1.0,1.0,96,0.00,,---,0.00,VWS V14.00,2013-05-19 19:59:00,
2013-05-19 16:04:00,57.8,56.7,30.22,East,101,1.0,1.0,96,0.00,,---,0.00,VWS V14.00,2013-05-19 20:04:00,
2013-05-19 16:09:00,57.8,56.7,30.21,East,101,2.0,4.0,96,0.00,,---,0.00,VWS V14.00,2013-05-19 20:09:00,
2013-05-19 16:14:00,57.8,56.7,30.21,East,100,4.0,4.0,96,0.00,,---,0.00,VWS V14.00,2013-05-19 20:14:00,
2013-05-19 16:19:00,57.8,56.7,30.21,ESE,103,2.0,2.0,96,0.00,,---,0.00,VWS V14.00,2013-05-19 20:19:00,
2013-05-19 16:24:00,57.8,56.7,30.21,ENE,64,0.0,2.0,96,0.00,,---,0.00,VWS V14.00,2013-05-19 20:24:00,
2013-05-19 16:30:00,57.9,56.8,30.21,ENE,64,2.0,3.0,96,0.00,,---,0.00,VWS V14.00,2013-05-19 20:30:00,
2013-05-19 16:35:00,57.9,56.8,30.21,ENE,64,0.0,0.0,96,0.00,,---,0.00,VWS V14.00,2013-05-19 20:35:00,
2013-05-19 16:40:00,57.9,56.8,30.21,East,83,0.0,0.0,96,0.00,,---,0.00,VWS V14.00,2013-05-19 20:40:00,
2013-05-19 16:45:00,57.9,56.8,30.21,ENE,65,0.0,1.0,96,0.00,,---,0.00,VWS V14.00,2013-05-19 20:45:00,
2013-05-19 16:50:00,57.8,56.7,30.21,East,101,0.0,0.0,96,0.00,,---,0.00,VWS V14.00,2013-05-19 20:50:00,
2013-05-19 16:55:00,57.8,56.7,30.21,East,101,0.0,0.0,96,0.00,,---,0.00,VWS V14.00,2013-05-19 20:55:00,
2013-05-19 17:00:00,57.9,56.8,30.20,East,101,0.0,1.0,96,0.00,,---,0.00,VWS V14.00,2013-05-19 21:00:00,
2013-05-19 17:05:00,57.9,56.8,30.21,ENE,63,2.0,2.0,96,0.00,,---,0.00,VWS V14.00,2013-05-19 21:05:00,
2013-05-19 17:10:00,57.8,56.7,30.20,East,89,0.0,0.0,96,0.00,,---,0.00,VWS V14.00,2013-05-19 21:10:00,
2013-05-19 17:15:00,57.9,56.8,30.20,East,89,0.0,0.0,96,0.00,,---,0.00,VWS V14.00,2013-05-19 21:15:00,
2013-05-19 17:20:00,57.9,56.8,30.20,East,89,0.0,1.0,96,0.00,,---,0.00,VWS V14.00,2013-05-19 21:20:00,
2013-05-19 17:25:00,57.9,56.8,30.20,East,89,0.0,1.0,96,0.00,,---,0.00,VWS V14.00,2013-05-19 21:25:00,
2013-05-19 17:30:00,58.0,56.9,30.20,East,89,0.0,0.0,96,0.00,,---,0.00,VWS V14.00,2013-05-19 21:30:00,
2013-05-19 17:35:00,58.1,57.0,30.20,East,92,1.0,1.0,96,0.00,,---,0.00,VWS V14.00,2013-05-19 21:35:00,
2013-05-19 17:40:00,58.0,56.9,30.20,East,92,0.0,1.0,96,0.00,,---,0.00,VWS V14.00,2013-05-19 21:40:00,
2013-05-19 17:45:00,58.1,57.0,30.20,East,92,0.0,1.0,96,0.00,,---,0.00,VWS V14.00,2013-05-19 21:45:00,
2013-05-19 17:50:00,58.1,57.0,30.20,East,92,1.0,2.0,96,0.00,,---,0.00,VWS V14.00,2013-05-19 21:50:00,
2013-05-19 17:56:00,58.1,57.0,30.20,East,92,0.0,2.0,96,0.00,,---,0.00,VWS V14.00,2013-05-19 21:56:00,
2013-05-19 18:01:00,58.0,56.9,30.20,East,92,0.0,1.0,96,0.00,,---,0.00,VWS V14.00,2013-05-19 22:01:00,
2013-05-19 18:06:00,58.1,57.0,30.20,East,92,0.0,0.0,96,0.00,,---,0.00,VWS V14.00,2013-05-19 22:06:00,
2013-05-19 18:11:00,58.0,56.9,30.20,East,94,0.0,0.0,96,0.00,,---,0.00,VWS V14.00,2013-05-19 22:11:00,
2013-05-19 18:16:00,58.0,56.9,30.20,East,94,0.0,1.0,96,0.00,,---,0.00,VWS V14.00,2013-05-19 22:16:00,
2013-05-19 18:21:00,58.0,56.9,30.20,East,94,0.0,0.0,96,0.00,,---,0.00,VWS V14.00,2013-05-19 22:21:00,
2013-05-19 18:26:00,58.0,56.9,30.20,East,94,1.0,1.0,96,0.00,,---,0.00,VWS V14.00,2013-05-19 22:26:00,
2013-05-19 18:31:00,58.0,56.9,30.20,East,94,0.0,1.0,96,0.00,,---,0.00,VWS V14.00,2013-05-19 22:31:00,
2013-05-19 18:36:00,58.0,56.9,30.20,East,94,0.0,0.0,96,0.00,,---,0.00,VWS V14.00,2013-05-19 22:36:00,
2013-05-19 18:41:00,58.1,57.0,30.20,East,94,0.0,0.0,96,0.00,,---,0.00,VWS V14.00,2013-05-19 22:41:00,
2013-05-19 18:46:00,58.1,57.0,30.20,East,94,0.0,0.0,96,0.00,,---,0.00,VWS V14.00,2013-05-19 22:46:00,
2013-05-19 18:51:00,58.1,57.0,30.19,East,94,0.0,0.0,96,0.00,,---,0.00,VWS V14.00,2013-05-19 22:51:00,
2013-05-19 18:56:00,58.1,57.0,30.20,ESE,107,0.0,0.0,96,0.00,,---,0.00,VWS V14.00,2013-05-19 22:56:00,
2013-05-19 19:01:00,58.1,57.0,30.19,ESE,107,0.0,0.0,96,0.00,,---,0.00,VWS V14.00,2013-05-19 23:01:00,
2013-05-19 19:06:00,58.1,57.0,30.20,ESE,107,0.0,0.0,96,0.00,,---,0.00,VWS V14.00,2013-05-19 23:06:00,
2013-05-19 19:11:00,58.1,57.0,30.20,ESE,107,0.0,0.0,96,0.00,,---,0.00,VWS V14.00,2013-05-19 23:11:00,
2013-05-19 19:16:00,58.1,57.0,30.20,ESE,107,0.0,0.0,96,0.00,,---,0.00,VWS V14.00,2013-05-19 23:16:00,
2013-05-19 19:22:00,58.2,57.1,30.20,ESE,107,0.0,0.0,96,0.00,,---,0.00,VWS V14.00,2013-05-19 23:22:00,
2013-05-19 19:27:00,58.1,57.0,30.20,ESE,107,0.0,0.0,96,0.00,,---,0.00,VWS V14.00,2013-05-19 23:27:00,
2013-05-19 19:32:00,58.1,57.0,30.20,ESE,107,0.0,0.0,96,0.00,,---,0.00,VWS V14.00,2013-05-19 23:32:00,
2013-05-19 19:37:00,58.2,57.1,30.20,ESE,107,0.0,0.0,96,0.00,,---,0.00,VWS V14.00,2013-05-19 23:37:00,
2013-05-19 19:42:00,58.1,57.0,30.20,ESE,107,0.0,0.0,96,0.00,,---,0.00,VWS V14.00,2013-05-19 23:42:00,
2013-05-19 19:47:00,58.1,57.0,30.20,ESE,107,0.0,0.0,96,0.00,,---,0.00,VWS V14.00,2013-05-19 23:47:00,
2013-05-19 19:52:00,58.1,57.0,30.20,NNE,27,0.0,0.0,96,0.00,,---,0.00,VWS V14.00,2013-05-19 23:52:00,
2013-05-19 19:57:00,58.2,57.1,30.20,NNE,27,0.0,0.0,96,0.00,,---,0.00,VWS V14.00,2013-05-19 23:57:00,
2013-05-19 20:02:00,58.2,57.1,30.20,NNE,27,0.0,0.0,96,0.00,,---,0.00,VWS V14.00,2013-05-20 00:02:00,
2013-05-19 20:07:00,58.2,57.1,30.20,NNE,27,0.0,0.0,96,0.00,,---,0.00,VWS V14.00,2013-05-20 00:07:00,
2013-05-19 20:12:00,58.2,57.1,30.19,NNE,27,0.0,1.0,96,0.00,,---,0.00,VWS V14.00,2013-05-20 00:12:00,
2013-05-19 20:17:00,58.2,57.1,30.19,NNE,27,0.0,1.0,96,0.00,,---,0.00,VWS V14.00,2013-05-20 00:17:00,
2013-05-19 20:22:00,58.2,57.1,30.19,NNE,27,0.0,0.0,96,0.00,,---,0.00,VWS V14.00,2013-05-20 00:22:00,
2013-05-19 20:27:00,58.2,57.1,30.19,NNE,27,0.0,0.0,96,0.00,,---,0.00,VWS V14.00,2013-05-20 00:27:00,
2013-05-19 20:32:00,58.1,57.0,30.19,NE,36,0.0,0.0,96,0.00,,---,0.00,VWS V14.00,2013-05-20 00:32:00,
2013-05-19 20:37:00,58.1,57.0,30.19,NE,36,0.0,0.0,96,0.00,,---,0.00,VWS V14.00,2013-05-20 00:37:00,
2013-05-19 20:42:00,58.1,57.0,30.18,NE,36,0.0,0.0,96,0.00,,---,0.00,VWS V14.00,2013-05-20 00:42:00,
2013-05-19 20:47:00,58.1,57.0,30.18,NE,36,0.0,0.0,96,0.00,,---,0.00,VWS V14.00,2013-05-20 00:47:00,
2013-05-19 20:52:00,58.1,57.0,30.18,NE,36,0.0,0.0,96,0.00,,---,0.00,VWS V14.00,2013-05-20 00:52:00,
2013-05-19 20:58:00,58.1,57.0,30.18,NE,36,0.0,0.0,96,0.00,,---,0.00,VWS V14.00,2013-05-20 00:58:00,
2013-05-19 21:03:00,58.2,57.1,30.17,NE,36,0.0,0.0,96,0.00,,---,0.00,VWS V14.00,2013-05-20 01:03:00,
2013-05-19 21:08:00,58.2,57.1,30.17,NE,36,0.0,0.0,96,0.00,,---,0.00,VWS V14.00,2013-05-20 01:08:00,
2013-05-19 21:13:00,58.2,57.1,30.17,NE,37,0.0,0.0,96,0.00,,---,0.00,VWS V14.00,2013-05-20 01:13:00,
2013-05-19 21:18:00,58.2,57.1,30.17,NE,36,0.0,0.0,96,0.00,,---,0.00,VWS V14.00,2013-05-20 01:18:00,
2013-05-19 21:23:00,58.3,57.2,30.17,NE,36,0.0,0.0,96,0.00,,---,0.00,VWS V14.00,2013-05-20 01:23:00,
2013-05-19 21:28:00,58.3,57.2,30.17,NE,36,0.0,0.0,96,0.00,,---,0.00,VWS V14.00,2013-05-20 01:28:00,
2013-05-19 21:33:00,58.4,57.3,30.17,NE,36,0.0,0.0,96,0.00,,---,0.00,VWS V14.00,2013-05-20 01:33:00,
2013-05-19 21:38:00,58.4,57.3,30.17,NE,36,0.0,0.0,96,0.00,,---,0.00,VWS V14.00,2013-05-20 01:38:00,
2013-05-19 21:43:00,58.4,57.3,30.17,NE,36,0.0,0.0,96,0.00,,---,0.00,VWS V14.00,2013-05-20 01:43:00,
2013-05-19 21:48:00,58.4,57.3,30.18,NE,36,0.0,0.0,96,0.00,,---,0.00,VWS V14.00,2013-05-20 01:48:00,
2013-05-19 21:53:00,58.4,57.3,30.18,NE,36,0.0,0.0,96,0.00,,---,0.00,VWS V14.00,2013-05-20 01:53:00,
2013-05-19 21:58:00,58.5,57.4,30.18,NE,37,0.0,0.0,96,0.00,,---,0.00,VWS V14.00,2013-05-20 01:58:00,
2013-05-19 22:03:00,58.5,57.4,30.18,NE,38,0.0,0.0,96,0.00,,---,0.00,VWS V14.00,2013-05-20 02:03:00,
2013-05-19 22:08:00,58.5,57.4,30.18,NE,38,0.0,0.0,96,0.00,,---,0.00,VWS V14.00,2013-05-20 02:08:00,
2013-05-19 22:13:00,58.6,57.5,30.19,NE,38,0.0,0.0,96,0.00,,---,0.00,VWS V14.00,2013-05-20 02:13:00,
2013-05-19 22:18:00,58.6,57.5,30.19,NE,38,0.0,0.0,96,0.00,,---,0.00,VWS V14.00,2013-05-20 02:18:00,
2013-05-19 22:24:00,58.6,57.5,30.19,NE,38,0.0,0.0,96,0.00,,---,0.00,VWS V14.00,2013-05-20 02:24:00,
2013-05-19 22:29:00,58.6,57.5,30.19,NE,38,0.0,0.0,96,0.00,,---,0.00,VWS V14.00,2013-05-20 02:29:00,
2013-05-19 22:34:00,58.6,57.5,30.19,NE,38,0.0,0.0,96,0.00,,---,0.00,VWS V14.00,2013-05-20 02:34:00,
2013-05-19 22:39:00,58.6,57.5,30.19,NE,38,0.0,0.0,96,0.00,,---,0.00,VWS V14.00,2013-05-20 02:39:00,
2013-05-19 22:44:00,58.6,57.5,30.19,NE,38,0.0,0.0,96,0.00,,---,0.00,VWS V14.00,2013-05-20 02:44:00,
2013-05-19 22:49:00,58.6,57.5,30.18,NE,38,0.0,0.0,96,0.00,,---,0.00,VWS V14.00,2013-05-20 02:49:00,
2013-05-19 22:54:00,58.7,57.6,30.18,NE,38,0.0,0.0,96,0.00,,---,0.00,VWS V14.00,2013-05-20 02:54:00,
2013-05-19 22:59:00,58.7,57.6,30.18,NE,38,0.0,0.0,96,0.00,,---,0.00,VWS V14.00,2013-05-20 02:59:00,
2013-05-19 23:04:00,58.7,57.6,30.18,NE,38,0.0,0.0,96,0.00,,---,0.00,VWS V14.00,2013-05-20 03:04:00,
2013-05-19 23:09:00,58.7,57.6,30.18,NE,38,0.0,0.0,96,0.00,,---,0.00,VWS V14.00,2013-05-20 03:09:00,
2013-05-19 23:14:00,58.7,57.6,30.18,NE,38,0.0,0.0,96,0.00,,---,0.00,VWS V14.00,2013-05-20 03:14:00,
2013-05-19 23:19:00,58.7,57.6,30.18,NE,38,0.0,0.0,96,0.00,,---,0.00,VWS V14.00,2013-05-20 03:19:00,
2013-05-19 23:24:00,58.7,57.6,30.18,NE,38,0.0,0.0,96,0.00,,---,0.00,VWS V14.00,2013-05-20 03:24:00,
2013-05-19 23:29:00,58.7,57.6,30.18,NE,38,0.0,0.0,96,0.00,,---,0.00,VWS V14.00,2013-05-20 03:29:00,
2013-05-19 23:34:00,58.7,57.6,30.18,NE,38,0.0,0.0,96,0.00,,---,0.00,VWS V14.00,2013-05-20 03:34:00,
2013-05-19 23:39:00,58.8,57.7,30.18,NE,38,0.0,0.0,96,0.00,,---,0.00,VWS V14.00,2013-05-20 03:39:00,
2013-05-19 23:44:00,58.7,57.6,30.19,NE,38,0.0,0.0,96,0.00,,---,0.00,VWS V14.00,2013-05-20 03:44:00,
2013-05-19 23:50:00,58.7,57.6,30.19,NE,38,0.0,0.0,96,0.00,,---,0.00,VWS V14.00,2013-05-20 03:50:00,
2013-05-19 23:55:00,58.7,57.6,30.19,NE,38,0.0,0.0,96,0.00,,---,0.00,VWS V14.00,2013-05-20 03:55:00,